カタログに戻る

IRIDIUM 33 DEB

運用中PO
NORAD 34538·DEBRIS·🇺🇸 United States

打ち上げ Sep 14, 1997 から Baikonur Cosmodrome

Loading…

次のパス (今後24時間)

TLE

最新Source: Space-Track

元期: Sep 14, 2026, 11:04 UTC

1 34538U 97051JF  26257.46142653  .00001309  00000-0  37514-3 0  9994
2 34538  86.2718 244.6151 0036478 128.9044  26.1636 14.43892982917333

AllMySatでIRIDIUM 33 DEBをリアルタイム追跡

Download on the App Store